Time,TemperatureF,DewpointF,PressureIn,WindDirection,WindDirectionDegrees,WindSpeedMPH,WindSpeedGustMPH,Humidity,HourlyPrecipIn,Conditions,Clouds,dailyrainin,SoftwareType,DateUTC
2013-09-03 00:00:00,64.0,63.1,29.72,WNW,292,0.0,0.0,97,0.00,,,0.00,WeatherCatV1.15B25,2013-09-03 04:00:00,
2013-09-03 00:05:00,64.1,63.2,29.73,WNW,292,0.0,0.0,97,0.00,,,0.00,WeatherCatV1.15B25,2013-09-03 04:05:00,
2013-09-03 00:10:00,64.1,63.2,29.73,WNW,292,0.0,0.0,97,0.00,,,0.00,WeatherCatV1.15B25,2013-09-03 04:10:00,
2013-09-03 00:15:00,64.1,63.2,29.73,WNW,292,0.0,0.0,97,0.00,,,0.00,WeatherCatV1.15B25,2013-09-03 04:15:00,
2013-09-03 00:20:00,64.1,63.2,29.73,WNW,292,0.0,0.0,97,0.00,,,0.00,WeatherCatV1.15B25,2013-09-03 04:20:00,
2013-09-03 00:25:00,64.1,63.2,29.73,WNW,292,0.0,0.0,97,0.00,,,0.00,WeatherCatV1.15B25,2013-09-03 04:25:00,
2013-09-03 00:30:00,64.1,63.2,29.73,WNW,292,0.0,0.0,97,0.00,,,0.00,WeatherCatV1.15B25,2013-09-03 04:30:00,
2013-09-03 00:35:00,63.9,63.0,29.72,WNW,292,0.0,0.0,97,0.00,,,0.00,WeatherCatV1.15B25,2013-09-03 04:35:00,
2013-09-03 00:40:00,63.9,63.0,29.72,WNW,292,0.0,0.0,97,0.00,,,0.00,WeatherCatV1.15B25,2013-09-03 04:40:00,
2013-09-03 00:45:00,63.9,63.0,29.72,WNW,292,0.0,0.0,97,0.00,,,0.00,WeatherCatV1.15B25,2013-09-03 04:45:00,
2013-09-03 00:50:00,63.9,63.0,29.70,SW,225,0.0,3.0,97,0.08,,,0.00,WeatherCatV1.15B25,2013-09-03 04:50:00,
2013-09-03 00:55:00,63.9,63.0,29.70,SW,225,0.0,3.0,97,0.08,,,0.00,WeatherCatV1.15B25,2013-09-03 04:55:00,
2013-09-03 01:00:00,63.9,63.0,29.70,SW,225,0.0,3.0,97,0.08,,,0.00,WeatherCatV1.15B25,2013-09-03 05:00:00,
2013-09-03 01:05:00,63.9,63.0,29.70,SW,225,0.0,2.0,97,0.04,,,0.00,WeatherCatV1.15B25,2013-09-03 05:05:00,
2013-09-03 01:10:00,63.9,63.0,29.70,SW,225,0.0,2.0,97,0.04,,,0.00,WeatherCatV1.15B25,2013-09-03 05:10:00,
2013-09-03 01:15:00,63.9,63.0,29.70,SW,225,0.0,2.0,97,0.04,,,0.00,WeatherCatV1.15B25,2013-09-03 05:15:00,
2013-09-03 01:20:00,63.8,62.9,29.68,SW,225,0.0,1.0,97,0.00,,,0.00,WeatherCatV1.15B25,2013-09-03 05:20:00,
2013-09-03 01:25:00,63.8,62.9,29.68,SW,225,0.0,1.0,97,0.00,,,0.00,WeatherCatV1.15B25,2013-09-03 05:25:00,
2013-09-03 01:30:00,63.8,62.9,29.68,SW,225,0.0,1.0,97,0.00,,,0.00,WeatherCatV1.15B25,2013-09-03 05:30:00,
2013-09-03 01:35:00,63.8,62.9,29.69,SW,225,0.0,0.0,97,0.00,,,0.00,WeatherCatV1.15B25,2013-09-03 05:35:00,
2013-09-03 01:40:00,63.8,62.9,29.69,SW,225,0.0,0.0,97,0.00,,,0.00,WeatherCatV1.15B25,2013-09-03 05:40:00,
2013-09-03 01:45:00,63.8,62.9,29.69,SW,225,0.0,0.0,97,0.00,,,0.00,WeatherCatV1.15B25,2013-09-03 05:45:00,
2013-09-03 01:50:00,63.6,62.7,29.69,SW,225,0.0,0.0,97,0.00,,,0.00,WeatherCatV1.15B25,2013-09-03 05:50:00,
2013-09-03 01:55:00,63.6,62.7,29.69,SW,225,0.0,0.0,97,0.00,,,0.00,WeatherCatV1.15B25,2013-09-03 05:55:00,
2013-09-03 02:00:00,63.6,62.7,29.69,SW,225,0.0,0.0,97,0.00,,,0.00,WeatherCatV1.15B25,2013-09-03 06:00:00,
2013-09-03 02:05:00,63.1,62.2,29.69,SW,225,0.0,0.0,97,0.00,,,0.00,WeatherCatV1.15B25,2013-09-03 06:05:00,
2013-09-03 02:10:00,63.1,62.2,29.69,SW,225,0.0,0.0,97,0.00,,,0.00,WeatherCatV1.15B25,2013-09-03 06:10:00,
2013-09-03 02:15:00,63.1,62.2,29.69,SW,225,0.0,0.0,97,0.00,,,0.00,WeatherCatV1.15B25,2013-09-03 06:15:00,
2013-09-03 02:20:00,62.9,62.0,29.69,SW,225,0.0,2.0,97,0.00,,,0.00,WeatherCatV1.15B25,2013-09-03 06:20:00,
2013-09-03 02:25:00,62.9,62.0,29.69,SW,225,0.0,2.0,97,0.00,,,0.00,WeatherCatV1.15B25,2013-09-03 06:25:00,
2013-09-03 02:30:00,62.9,62.0,29.69,SW,225,0.0,2.0,97,0.00,,,0.00,WeatherCatV1.15B25,2013-09-03 06:30:00,
2013-09-03 02:35:00,62.5,61.6,29.69,SW,225,0.0,0.0,97,0.00,,,0.00,WeatherCatV1.15B25,2013-09-03 06:35:00,
2013-09-03 02:40:00,62.5,61.6,29.69,SW,225,0.0,0.0,97,0.00,,,0.00,WeatherCatV1.15B25,2013-09-03 06:40:00,
2013-09-03 02:45:00,62.5,61.6,29.69,SW,225,0.0,0.0,97,0.00,,,0.00,WeatherCatV1.15B25,2013-09-03 06:45:00,
2013-09-03 02:50:00,62.3,61.4,29.69,SW,225,0.0,0.0,97,0.00,,,0.00,WeatherCatV1.15B25,2013-09-03 06:50:00,
2013-09-03 02:55:00,62.3,61.4,29.69,SW,225,0.0,0.0,97,0.00,,,0.00,WeatherCatV1.15B25,2013-09-03 06:55:00,
2013-09-03 03:00:00,62.3,61.4,29.69,SW,225,0.0,0.0,97,0.00,,,0.00,WeatherCatV1.15B25,2013-09-03 07:00:00,
2013-09-03 03:05:00,62.4,61.5,29.69,SW,225,0.0,0.0,97,0.00,,,0.00,WeatherCatV1.15B25,2013-09-03 07:05:00,
2013-09-03 03:10:00,62.4,61.5,29.69,SW,225,0.0,0.0,97,0.00,,,0.00,WeatherCatV1.15B25,2013-09-03 07:10:00,
2013-09-03 03:15:00,62.4,61.5,29.69,SW,225,0.0,0.0,97,0.00,,,0.00,WeatherCatV1.15B25,2013-09-03 07:15:00,
2013-09-03 03:20:00,62.5,61.6,29.69,SW,225,0.0,0.0,97,0.00,,,0.00,WeatherCatV1.15B25,2013-09-03 07:20:00,
2013-09-03 03:25:00,62.5,61.6,29.69,SW,225,0.0,0.0,97,0.00,,,0.00,WeatherCatV1.15B25,2013-09-03 07:25:00,
2013-09-03 03:30:00,62.5,61.6,29.69,SW,225,0.0,0.0,97,0.00,,,0.00,WeatherCatV1.15B25,2013-09-03 07:30:00,
2013-09-03 03:35:00,62.6,61.7,29.68,SW,225,0.0,0.0,97,0.00,,,0.00,WeatherCatV1.15B25,2013-09-03 07:35:00,
2013-09-03 03:40:00,62.6,61.7,29.68,SW,225,0.0,0.0,97,0.00,,,0.00,WeatherCatV1.15B25,2013-09-03 07:40:00,
2013-09-03 03:45:00,62.6,61.7,29.68,SW,225,0.0,0.0,97,0.00,,,0.00,WeatherCatV1.15B25,2013-09-03 07:45:00,
2013-09-03 03:50:00,62.0,61.1,29.68,SW,225,0.0,0.0,97,0.00,,,0.00,WeatherCatV1.15B25,2013-09-03 07:50:00,
2013-09-03 03:55:00,62.0,61.1,29.68,SW,225,0.0,0.0,97,0.00,,,0.00,WeatherCatV1.15B25,2013-09-03 07:55:00,
2013-09-03 04:00:00,62.0,61.1,29.68,SW,225,0.0,0.0,97,0.00,,,0.00,WeatherCatV1.15B25,2013-09-03 08:00:00,
2013-09-03 04:05:00,61.8,60.9,29.68,SW,225,0.0,0.0,97,0.00,,,0.00,WeatherCatV1.15B25,2013-09-03 08:05:00,
2013-09-03 04:10:00,61.8,60.9,29.68,SW,225,0.0,0.0,97,0.00,,,0.00,WeatherCatV1.15B25,2013-09-03 08:10:00,
2013-09-03 04:15:00,61.8,60.9,29.68,SW,225,0.0,0.0,97,0.00,,,0.00,WeatherCatV1.15B25,2013-09-03 08:15:00,
2013-09-03 04:20:00,61.9,61.0,29.69,SW,225,0.0,0.0,97,0.00,,,0.00,WeatherCatV1.15B25,2013-09-03 08:20:00,
2013-09-03 04:25:00,61.9,61.0,29.69,SW,225,0.0,0.0,97,0.00,,,0.00,WeatherCatV1.15B25,2013-09-03 08:25:00,
2013-09-03 04:30:00,61.9,61.0,29.69,SW,225,0.0,0.0,97,0.00,,,0.00,WeatherCatV1.15B25,2013-09-03 08:30:00,
2013-09-03 04:35:00,61.6,60.7,29.68,SW,225,0.0,1.0,97,0.00,,,0.00,WeatherCatV1.15B25,2013-09-03 08:35:00,
2013-09-03 04:40:00,61.6,60.7,29.68,SW,225,0.0,1.0,97,0.00,,,0.00,WeatherCatV1.15B25,2013-09-03 08:40:00,
2013-09-03 04:45:00,61.6,60.7,29.68,SW,225,0.0,1.0,97,0.00,,,0.00,WeatherCatV1.15B25,2013-09-03 08:45:00,
2013-09-03 04:50:00,61.6,60.7,29.68,SW,225,0.0,0.0,97,0.00,,,0.00,WeatherCatV1.15B25,2013-09-03 08:50:00,
2013-09-03 04:55:00,61.6,60.7,29.68,SW,225,0.0,0.0,97,0.00,,,0.00,WeatherCatV1.15B25,2013-09-03 08:55:00,
2013-09-03 05:00:00,61.6,60.7,29.68,SW,225,0.0,0.0,97,0.00,,,0.00,WeatherCatV1.15B25,2013-09-03 09:00:00,
2013-09-03 05:05:00,61.6,60.7,29.68,SW,225,0.0,2.0,97,0.00,,,0.00,WeatherCatV1.15B25,2013-09-03 09:05:00,
2013-09-03 05:10:00,61.6,60.7,29.68,SW,225,0.0,2.0,97,0.00,,,0.00,WeatherCatV1.15B25,2013-09-03 09:10:00,
2013-09-03 05:15:00,61.6,60.7,29.68,SW,225,0.0,2.0,97,0.00,,,0.00,WeatherCatV1.15B25,2013-09-03 09:15:00,
2013-09-03 05:20:00,61.3,60.4,29.69,SW,225,0.0,0.0,97,0.00,,,0.00,WeatherCatV1.15B25,2013-09-03 09:20:00,
2013-09-03 05:25:00,61.3,60.4,29.69,SW,225,0.0,0.0,97,0.00,,,0.00,WeatherCatV1.15B25,2013-09-03 09:25:00,
2013-09-03 05:30:00,61.3,60.4,29.69,SW,225,0.0,0.0,97,0.00,,,0.00,WeatherCatV1.15B25,2013-09-03 09:30:00,
2013-09-03 05:35:00,60.9,60.0,29.69,SW,225,0.0,0.0,97,0.00,,,0.00,WeatherCatV1.15B25,2013-09-03 09:35:00,
2013-09-03 05:40:00,60.9,60.0,29.69,SW,225,0.0,0.0,97,0.00,,,0.00,WeatherCatV1.15B25,2013-09-03 09:40:00,
2013-09-03 05:45:00,60.9,60.0,29.69,SW,225,0.0,0.0,97,0.00,,,0.00,WeatherCatV1.15B25,2013-09-03 09:45:00,
2013-09-03 05:50:00,60.6,59.7,29.70,SW,225,0.0,0.0,97,0.00,,,0.00,WeatherCatV1.15B25,2013-09-03 09:50:00,
2013-09-03 05:55:00,60.6,59.7,29.70,SW,225,0.0,0.0,97,0.00,,,0.00,WeatherCatV1.15B25,2013-09-03 09:55:00,
2013-09-03 06:00:00,60.6,59.7,29.70,SW,225,0.0,0.0,97,0.00,,,0.00,WeatherCatV1.15B25,2013-09-03 10:00:00,
2013-09-03 06:05:00,60.4,59.5,29.71,SW,225,0.0,0.0,97,0.00,,,0.00,WeatherCatV1.15B25,2013-09-03 10:05:00,
2013-09-03 06:10:00,60.4,59.5,29.71,SW,225,0.0,0.0,97,0.00,,,0.00,WeatherCatV1.15B25,2013-09-03 10:10:00,
2013-09-03 06:15:00,60.4,59.5,29.71,SW,225,0.0,0.0,97,0.00,,,0.00,WeatherCatV1.15B25,2013-09-03 10:15:00,
2013-09-03 06:20:00,60.2,59.3,29.71,SW,225,0.0,0.0,97,0.00,,,0.00,WeatherCatV1.15B25,2013-09-03 10:20:00,
2013-09-03 06:25:00,60.2,59.3,29.71,SW,225,0.0,0.0,97,0.00,,,0.00,WeatherCatV1.15B25,2013-09-03 10:25:00,
2013-09-03 06:30:00,60.2,59.3,29.71,SW,225,0.0,0.0,97,0.00,,,0.00,WeatherCatV1.15B25,2013-09-03 10:30:00,
2013-09-03 06:35:00,59.5,58.6,29.71,SW,225,0.0,0.0,97,0.00,,,0.00,WeatherCatV1.15B25,2013-09-03 10:35:00,
2013-09-03 06:40:00,59.5,58.6,29.71,SW,225,0.0,0.0,97,0.00,,,0.00,WeatherCatV1.15B25,2013-09-03 10:40:00,
2013-09-03 06:45:00,59.5,58.6,29.71,SW,225,0.0,0.0,97,0.00,,,0.00,WeatherCatV1.15B25,2013-09-03 10:45:00,
2013-09-03 06:50:00,59.0,58.2,29.71,SW,225,0.0,0.0,97,0.00,,,0.00,WeatherCatV1.15B25,2013-09-03 10:50:00,
2013-09-03 06:55:00,59.0,58.2,29.71,SW,225,0.0,0.0,97,0.00,,,0.00,WeatherCatV1.15B25,2013-09-03 10:55:00,
2013-09-03 07:00:00,59.0,58.2,29.71,SW,225,0.0,0.0,97,0.00,,,0.00,WeatherCatV1.15B25,2013-09-03 11:00:00,
2013-09-03 07:05:00,58.7,57.8,29.71,SW,225,0.0,0.0,97,0.00,,,0.00,WeatherCatV1.15B25,2013-09-03 11:05:00,
2013-09-03 07:10:00,58.7,57.8,29.71,SW,225,0.0,0.0,97,0.00,,,0.00,WeatherCatV1.15B25,2013-09-03 11:10:00,
2013-09-03 07:15:00,58.7,57.8,29.71,SW,225,0.0,0.0,97,0.00,,,0.00,WeatherCatV1.15B25,2013-09-03 11:15:00,
2013-09-03 07:20:00,59.0,58.2,29.72,SW,225,0.0,0.0,97,0.00,,,0.00,WeatherCatV1.15B25,2013-09-03 11:20:00,
2013-09-03 07:25:00,59.0,58.2,29.72,SW,225,0.0,0.0,97,0.00,,,0.00,WeatherCatV1.15B25,2013-09-03 11:25:00,
2013-09-03 07:30:00,59.0,58.2,29.72,SW,225,0.0,0.0,97,0.00,,,0.00,WeatherCatV1.15B25,2013-09-03 11:30:00,
2013-09-03 07:35:00,59.0,58.2,29.73,SW,225,0.0,0.0,97,0.00,,,0.00,WeatherCatV1.15B25,2013-09-03 11:35:00,
2013-09-03 07:40:00,59.0,58.2,29.73,SW,225,0.0,0.0,97,0.00,,,0.00,WeatherCatV1.15B25,2013-09-03 11:40:00,
2013-09-03 07:45:00,59.0,58.2,29.73,SW,225,0.0,0.0,97,0.00,,,0.00,WeatherCatV1.15B25,2013-09-03 11:45:00,
2013-09-03 07:50:00,59.7,58.8,29.73,SW,225,0.0,0.0,97,0.00,,,0.00,WeatherCatV1.15B25,2013-09-03 11:50:00,
2013-09-03 07:55:00,59.7,58.8,29.73,SW,225,0.0,0.0,97,0.00,,,0.00,WeatherCatV1.15B25,2013-09-03 11:55:00,
2013-09-03 08:00:00,59.7,58.8,29.73,SW,225,0.0,0.0,97,0.00,,,0.00,WeatherCatV1.15B25,2013-09-03 12:00:00,
2013-09-03 08:05:00,60.2,59.3,29.73,SW,225,0.0,0.0,97,0.00,,,0.00,WeatherCatV1.15B25,2013-09-03 12:05:00,
2013-09-03 08:10:00,60.2,59.3,29.73,SW,225,0.0,0.0,97,0.00,,,0.00,WeatherCatV1.15B25,2013-09-03 12:10:00,
2013-09-03 08:15:00,60.2,59.3,29.73,SW,225,0.0,0.0,97,0.00,,,0.00,WeatherCatV1.15B25,2013-09-03 12:15:00,
2013-09-03 08:20:00,60.6,59.7,29.74,SW,225,0.0,0.0,97,0.00,,,0.00,WeatherCatV1.15B25,2013-09-03 12:20:00,
2013-09-03 08:25:00,60.6,59.7,29.74,SW,225,0.0,0.0,97,0.00,,,0.00,WeatherCatV1.15B25,2013-09-03 12:25:00,
2013-09-03 08:30:00,60.6,59.7,29.74,SW,225,0.0,0.0,97,0.00,,,0.00,WeatherCatV1.15B25,2013-09-03 12:30:00,
2013-09-03 08:35:00,61.2,60.3,29.74,SW,225,0.0,0.0,97,0.00,,,0.00,WeatherCatV1.15B25,2013-09-03 12:35:00,
2013-09-03 08:40:00,61.2,60.3,29.74,SW,225,0.0,0.0,97,0.00,,,0.00,WeatherCatV1.15B25,2013-09-03 12:40:00,
2013-09-03 08:45:00,61.2,60.3,29.74,SW,225,0.0,0.0,97,0.00,,,0.00,WeatherCatV1.15B25,2013-09-03 12:45:00,
2013-09-03 08:50:00,62.3,61.7,29.74,SW,225,0.0,0.0,98,0.00,,,0.00,WeatherCatV1.15B25,2013-09-03 12:50:00,
2013-09-03 08:55:00,62.3,61.7,29.74,SW,225,0.0,0.0,98,0.00,,,0.00,WeatherCatV1.15B25,2013-09-03 12:55:00,
2013-09-03 09:00:00,62.3,61.7,29.74,SW,225,0.0,0.0,98,0.00,,,0.00,WeatherCatV1.15B25,2013-09-03 13:00:00,
2013-09-03 09:05:00,63.0,62.1,29.74,SW,225,0.0,0.0,97,0.00,,,0.00,WeatherCatV1.15B25,2013-09-03 13:05:00,
2013-09-03 09:10:00,63.0,62.1,29.74,SW,225,0.0,0.0,97,0.00,,,0.00,WeatherCatV1.15B25,2013-09-03 13:10:00,
2013-09-03 09:15:00,63.0,62.1,29.74,SW,225,0.0,0.0,97,0.00,,,0.00,WeatherCatV1.15B25,2013-09-03 13:15:00,
2013-09-03 09:20:00,63.2,62.3,29.74,SW,225,0.0,0.0,97,0.00,,,0.00,WeatherCatV1.15B25,2013-09-03 13:20:00,
2013-09-03 09:25:00,63.2,62.3,29.74,SW,225,0.0,0.0,97,0.00,,,0.00,WeatherCatV1.15B25,2013-09-03 13:25:00,
2013-09-03 09:30:00,63.2,62.3,29.74,SW,225,0.0,0.0,97,0.00,,,0.00,WeatherCatV1.15B25,2013-09-03 13:30:00,
2013-09-03 09:35:00,63.7,62.8,29.74,SW,225,0.0,1.0,97,0.00,,,0.00,WeatherCatV1.15B25,2013-09-03 13:35:00,
2013-09-03 09:40:00,63.7,62.8,29.74,SW,225,0.0,1.0,97,0.00,,,0.00,WeatherCatV1.15B25,2013-09-03 13:40:00,
2013-09-03 09:45:00,63.7,62.8,29.74,SW,225,0.0,1.0,97,0.00,,,0.00,WeatherCatV1.15B25,2013-09-03 13:45:00,
2013-09-03 09:50:00,65.5,64.9,29.73,SW,225,0.0,0.0,98,0.00,,,0.00,WeatherCatV1.15B25,2013-09-03 13:50:00,
2013-09-03 09:55:00,65.5,64.9,29.73,SW,225,0.0,0.0,98,0.00,,,0.00,WeatherCatV1.15B25,2013-09-03 13:55:00,
2013-09-03 10:00:00,65.5,64.9,29.73,SW,225,0.0,0.0,98,0.00,,,0.00,WeatherCatV1.15B25,2013-09-03 14:00:00,
2013-09-03 10:05:00,66.3,65.4,29.72,SW,225,0.0,0.0,97,0.00,,,0.00,WeatherCatV1.15B25,2013-09-03 14:05:00,
2013-09-03 10:10:00,66.3,65.4,29.72,SW,225,0.0,0.0,97,0.00,,,0.00,WeatherCatV1.15B25,2013-09-03 14:10:00,
2013-09-03 10:15:00,66.3,65.4,29.72,SW,225,0.0,0.0,97,0.00,,,0.00,WeatherCatV1.15B25,2013-09-03 14:15:00,
2013-09-03 10:20:00,66.6,65.7,29.72,East,90,0.0,2.0,97,0.00,,,0.00,WeatherCatV1.15B25,2013-09-03 14:20:00,
2013-09-03 10:25:00,66.6,65.7,29.72,East,90,0.0,2.0,97,0.00,,,0.00,WeatherCatV1.15B25,2013-09-03 14:25:00,
2013-09-03 10:30:00,66.6,65.7,29.72,East,90,0.0,2.0,97,0.00,,,0.00,WeatherCatV1.15B25,2013-09-03 14:30:00,
2013-09-03 10:35:00,67.6,66.7,29.72,East,90,0.0,3.0,97,0.00,,,0.00,WeatherCatV1.15B25,2013-09-03 14:35:00,
2013-09-03 10:40:00,67.6,66.7,29.72,East,90,0.0,3.0,97,0.00,,,0.00,WeatherCatV1.15B25,2013-09-03 14:40:00,
2013-09-03 10:45:00,67.6,66.7,29.72,East,90,0.0,3.0,97,0.00,,,0.00,WeatherCatV1.15B25,2013-09-03 14:45:00,
2013-09-03 10:50:00,68.6,67.1,29.72,ENE,68,0.0,1.0,95,0.00,,,0.00,WeatherCatV1.15B25,2013-09-03 14:50:00,
2013-09-03 10:55:00,68.6,67.1,29.72,ENE,68,0.0,1.0,95,0.00,,,0.00,WeatherCatV1.15B25,2013-09-03 14:55:00,
2013-09-03 11:00:00,68.6,67.1,29.72,ENE,68,0.0,1.0,95,0.00,,,0.00,WeatherCatV1.15B25,2013-09-03 15:00:00,
2013-09-03 11:05:00,69.2,66.8,29.72,East,90,0.0,3.0,92,0.00,,,0.00,WeatherCatV1.15B25,2013-09-03 15:05:00,
2013-09-03 11:10:00,69.2,66.8,29.72,East,90,0.0,3.0,92,0.00,,,0.00,WeatherCatV1.15B25,2013-09-03 15:10:00,
2013-09-03 11:15:00,69.2,66.8,29.72,East,90,0.0,3.0,92,0.00,,,0.00,WeatherCatV1.15B25,2013-09-03 15:15:00,
2013-09-03 11:20:00,69.5,66.1,29.72,ESE,112,0.0,1.0,89,0.00,,,0.00,WeatherCatV1.15B25,2013-09-03 15:20:00,
2013-09-03 11:25:00,69.5,66.1,29.72,ESE,112,0.0,1.0,89,0.00,,,0.00,WeatherCatV1.15B25,2013-09-03 15:25:00,
2013-09-03 11:30:00,69.5,66.1,29.72,ESE,112,0.0,1.0,89,0.00,,,0.00,WeatherCatV1.15B25,2013-09-03 15:30:00,
2013-09-03 11:35:00,68.9,65.8,29.72,East,90,0.0,3.0,90,0.00,,,0.00,WeatherCatV1.15B25,2013-09-03 15:35:00,
2013-09-03 11:40:00,68.9,65.8,29.72,East,90,0.0,3.0,90,0.00,,,0.00,WeatherCatV1.15B25,2013-09-03 15:40:00,
2013-09-03 11:45:00,68.9,65.8,29.72,East,90,0.0,3.0,90,0.00,,,0.00,WeatherCatV1.15B25,2013-09-03 15:45:00,
2013-09-03 11:50:00,68.0,65.3,29.72,East,90,0.0,0.0,91,0.00,,,0.00,WeatherCatV1.15B25,2013-09-03 15:50:00,
2013-09-03 11:55:00,68.0,65.3,29.72,East,90,0.0,0.0,91,0.00,,,0.00,WeatherCatV1.15B25,2013-09-03 15:55:00,
2013-09-03 12:00:00,68.0,65.3,29.72,East,90,0.0,0.0,91,0.00,,,0.00,WeatherCatV1.15B25,2013-09-03 16:00:00,
2013-09-03 12:05:00,68.1,65.7,29.71,East,90,0.0,2.0,92,0.00,,,0.00,WeatherCatV1.15B25,2013-09-03 16:05:00,
2013-09-03 12:10:00,68.1,65.7,29.71,East,90,0.0,2.0,92,0.00,,,0.00,WeatherCatV1.15B25,2013-09-03 16:10:00,
2013-09-03 12:15:00,68.1,65.7,29.71,East,90,0.0,2.0,92,0.00,,,0.00,WeatherCatV1.15B25,2013-09-03 16:15:00,
2013-09-03 12:20:00,69.7,67.3,29.71,East,90,0.0,1.0,92,0.00,,,0.00,WeatherCatV1.15B25,2013-09-03 16:20:00,
2013-09-03 12:25:00,69.7,67.3,29.71,East,90,0.0,1.0,92,0.00,,,0.00,WeatherCatV1.15B25,2013-09-03 16:25:00,
2013-09-03 12:30:00,69.7,67.3,29.71,East,90,0.0,1.0,92,0.00,,,0.00,WeatherCatV1.15B25,2013-09-03 16:30:00,
2013-09-03 12:35:00,72.1,67.7,29.69,East,90,0.0,2.0,86,0.00,,,0.00,WeatherCatV1.15B25,2013-09-03 16:35:00,
2013-09-03 12:40:00,72.1,67.7,29.69,East,90,0.0,2.0,86,0.00,,,0.00,WeatherCatV1.15B25,2013-09-03 16:40:00,
2013-09-03 12:45:00,72.1,67.7,29.69,East,90,0.0,2.0,86,0.00,,,0.00,WeatherCatV1.15B25,2013-09-03 16:45:00,
2013-09-03 12:50:00,74.8,70.3,29.68,WSW,248,0.0,2.0,86,0.00,,,0.00,WeatherCatV1.15B25,2013-09-03 16:50:00,
2013-09-03 12:55:00,74.8,70.3,29.68,WSW,248,0.0,2.0,86,0.00,,,0.00,WeatherCatV1.15B25,2013-09-03 16:55:00,
2013-09-03 13:00:00,74.8,70.3,29.68,WSW,248,0.0,2.0,86,0.00,,,0.00,WeatherCatV1.15B25,2013-09-03 17:00:00,
2013-09-03 13:05:00,74.7,67.7,29.68,WSW,248,0.0,2.0,79,0.00,,,0.00,WeatherCatV1.15B25,2013-09-03 17:05:00,
2013-09-03 13:10:00,74.7,67.7,29.68,WSW,248,0.0,2.0,79,0.00,,,0.00,WeatherCatV1.15B25,2013-09-03 17:10:00,
2013-09-03 13:15:00,74.7,67.7,29.68,WSW,248,0.0,2.0,79,0.00,,,0.00,WeatherCatV1.15B25,2013-09-03 17:15:00,
2013-09-03 13:20:00,73.5,67.3,29.69,ENE,68,0.0,3.0,81,0.00,,,0.00,WeatherCatV1.15B25,2013-09-03 17:20:00,
2013-09-03 13:25:00,73.5,67.3,29.69,ENE,68,0.0,3.0,81,0.00,,,0.00,WeatherCatV1.15B25,2013-09-03 17:25:00,
2013-09-03 13:30:00,73.5,67.3,29.69,ENE,68,0.0,3.0,81,0.00,,,0.00,WeatherCatV1.15B25,2013-09-03 17:30:00,
2013-09-03 13:35:00,72.2,66.7,29.69,NNW,338,0.0,3.0,83,0.00,,,0.00,WeatherCatV1.15B25,2013-09-03 17:35:00,
2013-09-03 13:40:00,72.2,66.7,29.69,NNW,338,0.0,3.0,83,0.00,,,0.00,WeatherCatV1.15B25,2013-09-03 17:40:00,
2013-09-03 13:45:00,72.2,66.7,29.69,NNW,338,0.0,3.0,83,0.00,,,0.00,WeatherCatV1.15B25,2013-09-03 17:45:00,
2013-09-03 13:50:00,71.3,66.5,29.69,NNW,338,0.0,3.0,85,0.00,,,0.00,WeatherCatV1.15B25,2013-09-03 17:50:00,
2013-09-03 13:55:00,71.3,66.5,29.69,NNW,338,0.0,3.0,85,0.00,,,0.00,WeatherCatV1.15B25,2013-09-03 17:55:00,
2013-09-03 14:00:00,71.3,66.5,29.69,NNW,338,0.0,3.0,85,0.00,,,0.00,WeatherCatV1.15B25,2013-09-03 18:00:00,
2013-09-03 14:05:00,70.2,66.5,29.69,NNW,338,0.0,3.0,88,0.00,,,0.00,WeatherCatV1.15B25,2013-09-03 18:05:00,
2013-09-03 14:10:00,70.2,66.5,29.69,NNW,338,0.0,3.0,88,0.00,,,0.00,WeatherCatV1.15B25,2013-09-03 18:10:00,
2013-09-03 14:15:00,70.2,66.5,29.69,NNW,338,0.0,3.0,88,0.00,,,0.00,WeatherCatV1.15B25,2013-09-03 18:15:00,
2013-09-03 14:20:00,69.7,66.6,29.69,NNW,338,0.0,1.0,90,0.00,,,0.00,WeatherCatV1.15B25,2013-09-03 18:20:00,
2013-09-03 14:25:00,69.7,66.6,29.69,NNW,338,0.0,1.0,90,0.00,,,0.00,WeatherCatV1.15B25,2013-09-03 18:25:00,
2013-09-03 14:30:00,69.7,66.6,29.69,NNW,338,0.0,1.0,90,0.00,,,0.00,WeatherCatV1.15B25,2013-09-03 18:30:00,
2013-09-03 14:35:00,69.4,66.7,29.69,NNW,338,0.0,0.0,91,0.00,,,0.00,WeatherCatV1.15B25,2013-09-03 18:35:00,
2013-09-03 14:40:00,69.4,66.7,29.69,NNW,338,0.0,0.0,91,0.00,,,0.00,WeatherCatV1.15B25,2013-09-03 18:40:00,
2013-09-03 14:45:00,69.4,66.7,29.69,NNW,338,0.0,0.0,91,0.00,,,0.00,WeatherCatV1.15B25,2013-09-03 18:45:00,
2013-09-03 14:50:00,69.4,67.0,29.68,NNW,338,0.0,0.0,92,0.00,,,0.00,WeatherCatV1.15B25,2013-09-03 18:50:00,
2013-09-03 14:55:00,69.4,67.0,29.68,NNW,338,0.0,0.0,92,0.00,,,0.00,WeatherCatV1.15B25,2013-09-03 18:55:00,
2013-09-03 15:00:00,69.4,67.0,29.68,NNW,338,0.0,0.0,92,0.00,,,0.00,WeatherCatV1.15B25,2013-09-03 19:00:00,
2013-09-03 15:05:00,69.9,67.8,29.68,NNW,338,0.0,1.0,93,0.00,,,0.00,WeatherCatV1.15B25,2013-09-03 19:05:00,
2013-09-03 15:10:00,69.9,67.8,29.68,NNW,338,0.0,1.0,93,0.00,,,0.00,WeatherCatV1.15B25,2013-09-03 19:10:00,
2013-09-03 15:15:00,69.9,67.8,29.68,NNW,338,0.0,1.0,93,0.00,,,0.00,WeatherCatV1.15B25,2013-09-03 19:15:00,
2013-09-03 15:20:00,70.8,64.7,29.68,WNW,292,1.0,6.0,81,0.00,,,0.00,WeatherCatV1.15B25,2013-09-03 19:20:00,
2013-09-03 15:25:00,70.8,64.7,29.68,WNW,292,1.0,6.0,81,0.00,,,0.00,WeatherCatV1.15B25,2013-09-03 19:25:00,
2013-09-03 15:30:00,70.8,64.7,29.68,WNW,292,1.0,6.0,81,0.00,,,0.00,WeatherCatV1.15B25,2013-09-03 19:30:00,
2013-09-03 15:35:00,72.6,65.3,29.67,West,270,1.0,7.0,78,0.00,,,0.00,WeatherCatV1.15B25,2013-09-03 19:35:00,
2013-09-03 15:40:00,72.6,65.3,29.67,West,270,1.0,7.0,78,0.00,,,0.00,WeatherCatV1.15B25,2013-09-03 19:40:00,
2013-09-03 15:45:00,72.6,65.3,29.67,West,270,1.0,7.0,78,0.00,,,0.00,WeatherCatV1.15B25,2013-09-03 19:45:00,
2013-09-03 15:50:00,73.2,64.4,29.67,ENE,68,1.0,7.0,74,0.00,,,0.00,WeatherCatV1.15B25,2013-09-03 19:50:00,
2013-09-03 15:55:00,73.2,64.4,29.67,ENE,68,1.0,7.0,74,0.00,,,0.00,WeatherCatV1.15B25,2013-09-03 19:55:00,
2013-09-03 16:00:00,73.2,64.4,29.67,ENE,68,1.0,7.0,74,0.00,,,0.00,WeatherCatV1.15B25,2013-09-03 20:00:00,
2013-09-03 16:05:00,75.5,67.8,29.67,NE,45,0.0,3.0,77,0.00,,,0.00,WeatherCatV1.15B25,2013-09-03 20:05:00,
2013-09-03 16:10:00,75.5,67.8,29.67,NE,45,0.0,3.0,77,0.00,,,0.00,WeatherCatV1.15B25,2013-09-03 20:10:00,
2013-09-03 16:15:00,75.5,67.8,29.67,NE,45,0.0,3.0,77,0.00,,,0.00,WeatherCatV1.15B25,2013-09-03 20:15:00,
2013-09-03 16:20:00,76.1,66.4,29.66,ENE,68,0.0,2.0,72,0.00,,,0.00,WeatherCatV1.15B25,2013-09-03 20:20:00,
2013-09-03 16:25:00,76.1,66.4,29.66,ENE,68,0.0,2.0,72,0.00,,,0.00,WeatherCatV1.15B25,2013-09-03 20:25:00,
2013-09-03 16:30:00,76.1,66.4,29.66,ENE,68,0.0,2.0,72,0.00,,,0.00,WeatherCatV1.15B25,2013-09-03 20:30:00,
2013-09-03 16:35:00,74.5,64.5,29.67,ENE,68,1.0,12.0,71,0.00,,,0.00,WeatherCatV1.15B25,2013-09-03 20:35:00,
2013-09-03 16:40:00,74.5,64.5,29.67,ENE,68,1.0,12.0,71,0.00,,,0.00,WeatherCatV1.15B25,2013-09-03 20:40:00,
2013-09-03 16:45:00,74.5,64.5,29.67,ENE,68,1.0,12.0,71,0.00,,,0.00,WeatherCatV1.15B25,2013-09-03 20:45:00,
2013-09-03 16:50:00,72.7,62.7,29.68,SSW,202,1.0,6.0,71,0.00,,,0.00,WeatherCatV1.15B25,2013-09-03 20:50:00,
2013-09-03 16:55:00,72.7,62.7,29.68,SSW,202,1.0,6.0,71,0.00,,,0.00,WeatherCatV1.15B25,2013-09-03 20:55:00,
2013-09-03 17:00:00,72.7,62.7,29.68,SSW,202,1.0,6.0,71,0.00,,,0.00,WeatherCatV1.15B25,2013-09-03 21:00:00,
2013-09-03 17:05:00,72.6,63.8,29.67,WNW,292,1.0,4.0,74,0.00,,,0.00,WeatherCatV1.15B25,2013-09-03 21:05:00,
2013-09-03 17:10:00,72.6,63.8,29.67,WNW,292,1.0,4.0,74,0.00,,,0.00,WeatherCatV1.15B25,2013-09-03 21:10:00,
2013-09-03 17:15:00,72.6,63.8,29.67,WNW,292,1.0,4.0,74,0.00,,,0.00,WeatherCatV1.15B25,2013-09-03 21:15:00,
2013-09-03 17:20:00,72.0,63.2,29.68,ENE,68,1.0,4.0,74,0.00,,,0.00,WeatherCatV1.15B25,2013-09-03 21:20:00,
2013-09-03 17:25:00,72.0,63.2,29.68,ENE,68,1.0,4.0,74,0.00,,,0.00,WeatherCatV1.15B25,2013-09-03 21:25:00,
2013-09-03 17:30:00,72.0,63.2,29.68,ENE,68,1.0,4.0,74,0.00,,,0.00,WeatherCatV1.15B25,2013-09-03 21:30:00,
2013-09-03 17:35:00,70.5,62.6,29.68,WNW,292,1.0,7.0,76,0.00,,,0.00,WeatherCatV1.15B25,2013-09-03 21:35:00,
2013-09-03 17:40:00,70.5,62.6,29.68,WNW,292,1.0,7.0,76,0.00,,,0.00,WeatherCatV1.15B25,2013-09-03 21:40:00,
2013-09-03 17:45:00,70.5,62.6,29.68,WNW,292,1.0,7.0,76,0.00,,,0.00,WeatherCatV1.15B25,2013-09-03 21:45:00,
2013-09-03 17:50:00,69.5,62.7,29.68,WNW,292,0.0,2.0,79,0.00,,,0.00,WeatherCatV1.15B25,2013-09-03 21:50:00,
2013-09-03 17:55:00,69.5,62.7,29.68,WNW,292,0.0,2.0,79,0.00,,,0.00,WeatherCatV1.15B25,2013-09-03 21:55:00,
2013-09-03 18:00:00,69.5,62.7,29.68,WNW,292,0.0,2.0,79,0.00,,,0.00,WeatherCatV1.15B25,2013-09-03 22:00:00,
2013-09-03 18:05:00,69.0,62.2,29.68,ENE,68,0.0,2.0,79,0.00,,,0.00,WeatherCatV1.15B25,2013-09-03 22:05:00,
2013-09-03 18:10:00,69.0,62.2,29.68,ENE,68,0.0,2.0,79,0.00,,,0.00,WeatherCatV1.15B25,2013-09-03 22:10:00,
2013-09-03 18:15:00,69.0,62.2,29.68,ENE,68,0.0,2.0,79,0.00,,,0.00,WeatherCatV1.15B25,2013-09-03 22:15:00,
2013-09-03 18:20:00,68.6,62.2,29.68,ENE,68,0.0,2.0,80,0.00,,,0.00,WeatherCatV1.15B25,2013-09-03 22:20:00,
2013-09-03 18:25:00,68.6,62.2,29.68,ENE,68,0.0,2.0,80,0.00,,,0.00,WeatherCatV1.15B25,2013-09-03 22:25:00,
2013-09-03 18:30:00,68.6,62.2,29.68,ENE,68,0.0,2.0,80,0.00,,,0.00,WeatherCatV1.15B25,2013-09-03 22:30:00,
2013-09-03 18:35:00,67.9,62.2,29.69,NW,315,0.0,2.0,82,0.00,,,0.00,WeatherCatV1.15B25,2013-09-03 22:35:00,
2013-09-03 18:40:00,67.9,62.2,29.69,NW,315,0.0,2.0,82,0.00,,,0.00,WeatherCatV1.15B25,2013-09-03 22:40:00,
2013-09-03 18:45:00,67.9,62.2,29.69,NW,315,0.0,2.0,82,0.00,,,0.00,WeatherCatV1.15B25,2013-09-03 22:45:00,
2013-09-03 18:50:00,66.8,62.1,29.69,NW,315,0.0,2.0,85,0.00,,,0.00,WeatherCatV1.15B25,2013-09-03 22:50:00,
2013-09-03 18:55:00,66.8,62.1,29.69,NW,315,0.0,2.0,85,0.00,,,0.00,WeatherCatV1.15B25,2013-09-03 22:55:00,
2013-09-03 19:00:00,66.8,62.1,29.69,NW,315,0.0,2.0,85,0.00,,,0.00,WeatherCatV1.15B25,2013-09-03 23:00:00,
2013-09-03 19:05:00,65.8,61.8,29.69,NW,315,0.0,1.0,87,0.00,,,0.00,WeatherCatV1.15B25,2013-09-03 23:05:00,
2013-09-03 19:10:00,65.8,61.8,29.69,NW,315,0.0,1.0,87,0.00,,,0.00,WeatherCatV1.15B25,2013-09-03 23:10:00,
2013-09-03 19:15:00,65.8,61.8,29.69,NW,315,0.0,1.0,87,0.00,,,0.00,WeatherCatV1.15B25,2013-09-03 23:15:00,
2013-09-03 19:20:00,64.6,61.3,29.69,NW,315,0.0,1.0,89,0.00,,,0.00,WeatherCatV1.15B25,2013-09-03 23:20:00,
2013-09-03 19:25:00,64.6,61.3,29.69,NW,315,0.0,1.0,89,0.00,,,0.00,WeatherCatV1.15B25,2013-09-03 23:25:00,
2013-09-03 19:30:00,64.6,61.3,29.69,NW,315,0.0,1.0,89,0.00,,,0.00,WeatherCatV1.15B25,2013-09-03 23:30:00,
2013-09-03 19:35:00,63.6,60.6,29.69,NW,315,0.0,1.0,90,0.00,,,0.00,WeatherCatV1.15B25,2013-09-03 23:35:00,
2013-09-03 19:40:00,63.6,60.6,29.69,NW,315,0.0,1.0,90,0.00,,,0.00,WeatherCatV1.15B25,2013-09-03 23:40:00,
2013-09-03 19:45:00,63.6,60.6,29.69,NW,315,0.0,1.0,90,0.00,,,0.00,WeatherCatV1.15B25,2013-09-03 23:45:00,
2013-09-03 19:50:00,62.7,60.0,29.70,NW,315,0.0,0.0,91,0.00,,,0.00,WeatherCatV1.15B25,2013-09-03 23:50:00,
2013-09-03 19:55:00,62.7,60.0,29.70,NW,315,0.0,0.0,91,0.00,,,0.00,WeatherCatV1.15B25,2013-09-03 23:55:00,
2013-09-03 20:00:00,62.7,60.0,29.70,NW,315,0.0,0.0,91,0.00,,,0.00,WeatherCatV1.15B25,2013-09-04 00:00:00,
2013-09-03 20:05:00,62.0,59.6,29.72,NW,315,0.0,0.0,92,0.00,,,0.00,WeatherCatV1.15B25,2013-09-04 00:05:00,
2013-09-03 20:10:00,62.0,59.6,29.72,NW,315,0.0,0.0,92,0.00,,,0.00,WeatherCatV1.15B25,2013-09-04 00:10:00,
2013-09-03 20:15:00,62.0,59.6,29.72,NW,315,0.0,0.0,92,0.00,,,0.00,WeatherCatV1.15B25,2013-09-04 00:15:00,
2013-09-03 20:20:00,61.3,59.3,29.73,East,90,0.0,4.0,93,0.00,,,0.00,WeatherCatV1.15B25,2013-09-04 00:20:00,
2013-09-03 20:25:00,61.3,59.3,29.73,East,90,0.0,4.0,93,0.00,,,0.00,WeatherCatV1.15B25,2013-09-04 00:25:00,
2013-09-03 20:30:00,61.3,59.3,29.73,East,90,0.0,4.0,93,0.00,,,0.00,WeatherCatV1.15B25,2013-09-04 00:30:00,
2013-09-03 20:35:00,61.0,59.0,29.74,NE,45,0.0,3.0,93,0.00,,,0.00,WeatherCatV1.15B25,2013-09-04 00:35:00,
2013-09-03 20:40:00,61.0,59.0,29.74,NE,45,0.0,3.0,93,0.00,,,0.00,WeatherCatV1.15B25,2013-09-04 00:40:00,
2013-09-03 20:45:00,61.0,59.0,29.74,NE,45,0.0,3.0,93,0.00,,,0.00,WeatherCatV1.15B25,2013-09-04 00:45:00,
2013-09-03 20:50:00,61.4,59.4,29.74,NE,45,0.0,4.0,93,0.00,,,0.00,WeatherCatV1.15B25,2013-09-04 00:50:00,
2013-09-03 20:55:00,61.4,59.4,29.74,NE,45,0.0,4.0,93,0.00,,,0.00,WeatherCatV1.15B25,2013-09-04 00:55:00,
2013-09-03 21:00:00,61.4,59.4,29.74,NE,45,0.0,4.0,93,0.00,,,0.00,WeatherCatV1.15B25,2013-09-04 01:00:00,
2013-09-03 21:05:00,61.7,59.3,29.73,East,90,0.0,2.0,92,0.00,,,0.00,WeatherCatV1.15B25,2013-09-04 01:05:00,
2013-09-03 21:10:00,61.7,59.3,29.73,East,90,0.0,2.0,92,0.00,,,0.00,WeatherCatV1.15B25,2013-09-04 01:10:00,
2013-09-03 21:15:00,61.7,59.3,29.73,East,90,0.0,2.0,92,0.00,,,0.00,WeatherCatV1.15B25,2013-09-04 01:15:00,
2013-09-03 21:20:00,61.5,59.1,29.73,East,90,0.0,2.0,92,0.00,,,0.00,WeatherCatV1.15B25,2013-09-04 01:20:00,
2013-09-03 21:25:00,61.5,59.1,29.73,East,90,0.0,2.0,92,0.00,,,0.00,WeatherCatV1.15B25,2013-09-04 01:25:00,
2013-09-03 21:30:00,61.5,59.1,29.73,East,90,0.0,2.0,92,0.00,,,0.00,WeatherCatV1.15B25,2013-09-04 01:30:00,
2013-09-03 21:35:00,61.4,59.1,29.73,East,90,0.0,2.0,92,0.00,,,0.00,WeatherCatV1.15B25,2013-09-04 01:35:00,
2013-09-03 21:40:00,61.4,59.1,29.73,East,90,0.0,2.0,92,0.00,,,0.00,WeatherCatV1.15B25,2013-09-04 01:40:00,
2013-09-03 21:45:00,61.4,59.1,29.73,East,90,0.0,2.0,92,0.00,,,0.00,WeatherCatV1.15B25,2013-09-04 01:45:00,
2013-09-03 21:50:00,61.1,58.7,29.73,East,90,0.0,0.0,92,0.00,,,0.00,WeatherCatV1.15B25,2013-09-04 01:50:00,
2013-09-03 21:55:00,61.1,58.7,29.73,East,90,0.0,0.0,92,0.00,,,0.00,WeatherCatV1.15B25,2013-09-04 01:55:00,
2013-09-03 22:00:00,61.1,58.7,29.73,East,90,0.0,0.0,92,0.00,,,0.00,WeatherCatV1.15B25,2013-09-04 02:00:00,
2013-09-03 22:05:00,60.5,58.2,29.73,East,90,0.0,3.0,92,0.00,,,0.00,WeatherCatV1.15B25,2013-09-04 02:05:00,
2013-09-03 22:10:00,60.5,58.2,29.73,East,90,0.0,3.0,92,0.00,,,0.00,WeatherCatV1.15B25,2013-09-04 02:10:00,
2013-09-03 22:15:00,60.5,58.2,29.73,East,90,0.0,3.0,92,0.00,,,0.00,WeatherCatV1.15B25,2013-09-04 02:15:00,
2013-09-03 22:20:00,60.8,58.5,29.72,East,90,0.0,3.0,92,0.00,,,0.00,WeatherCatV1.15B25,2013-09-04 02:20:00,
2013-09-03 22:25:00,60.8,58.5,29.72,East,90,0.0,3.0,92,0.00,,,0.00,WeatherCatV1.15B25,2013-09-04 02:25:00,
2013-09-03 22:30:00,60.8,58.5,29.72,East,90,0.0,3.0,92,0.00,,,0.00,WeatherCatV1.15B25,2013-09-04 02:30:00,
2013-09-03 22:35:00,60.6,58.3,29.73,East,90,0.0,1.0,92,0.00,,,0.00,WeatherCatV1.15B25,2013-09-04 02:35:00,
2013-09-03 22:40:00,60.6,58.3,29.73,East,90,0.0,1.0,92,0.00,,,0.00,WeatherCatV1.15B25,2013-09-04 02:40:00,
2013-09-03 22:45:00,60.6,58.3,29.73,East,90,0.0,1.0,92,0.00,,,0.00,WeatherCatV1.15B25,2013-09-04 02:45:00,
2013-09-03 22:50:00,60.6,58.3,29.73,East,90,0.0,4.0,92,0.00,,,0.00,WeatherCatV1.15B25,2013-09-04 02:50:00,
2013-09-03 22:55:00,60.6,58.3,29.73,East,90,0.0,4.0,92,0.00,,,0.00,WeatherCatV1.15B25,2013-09-04 02:55:00,
2013-09-03 23:00:00,60.6,58.3,29.73,East,90,0.0,4.0,92,0.00,,,0.00,WeatherCatV1.15B25,2013-09-04 03:00:00,
2013-09-03 23:05:00,60.7,58.4,29.73,East,90,0.0,3.0,92,0.00,,,0.00,WeatherCatV1.15B25,2013-09-04 03:05:00,
2013-09-03 23:10:00,60.7,58.4,29.73,East,90,0.0,3.0,92,0.00,,,0.00,WeatherCatV1.15B25,2013-09-04 03:10:00,
2013-09-03 23:15:00,60.7,58.4,29.73,East,90,0.0,3.0,92,0.00,,,0.00,WeatherCatV1.15B25,2013-09-04 03:15:00,
2013-09-03 23:20:00,60.6,58.3,29.73,East,90,1.0,5.0,92,0.00,,,0.00,WeatherCatV1.15B25,2013-09-04 03:20:00,
2013-09-03 23:25:00,60.6,58.3,29.73,East,90,1.0,5.0,92,0.00,,,0.00,WeatherCatV1.15B25,2013-09-04 03:25:00,
2013-09-03 23:30:00,60.6,58.3,29.73,East,90,1.0,5.0,92,0.00,,,0.00,WeatherCatV1.15B25,2013-09-04 03:30:00,
2013-09-03 23:35:00,60.6,58.0,29.72,NE,45,1.0,5.0,91,0.00,,,0.00,WeatherCatV1.15B25,2013-09-04 03:35:00,
2013-09-03 23:40:00,60.6,58.0,29.72,NE,45,1.0,5.0,91,0.00,,,0.00,WeatherCatV1.15B25,2013-09-04 03:40:00,
2013-09-03 23:45:00,60.6,58.0,29.72,NE,45,1.0,5.0,91,0.00,,,0.00,WeatherCatV1.15B25,2013-09-04 03:45:00,
2013-09-03 23:50:00,61.0,58.0,29.73,East,90,1.0,4.0,90,0.00,,,0.00,WeatherCatV1.15B25,2013-09-04 03:50:00,
2013-09-03 23:55:00,61.0,58.0,29.73,East,90,1.0,4.0,90,0.00,,,0.00,WeatherCatV1.15B25,2013-09-04 03:55:00,